Location: Drocourt
(49.0571°N, 1.7669°E)
Time: 02:43:40
(UTC+00:00)

Transit 4A - Pass Details

Date: 13 April 2024
Orbit: 871 x 971 km, 66.8° (Epoch: 19 May)

Event Time Altitude Azimuth Distance (km) Brightness Sun altitude
Rises 00:37:41 0° 312° (NW) 3,469 11.3 -31.0°
Reaches altitude 10° 00:41:07 10° 292° (WNW) 2,527 10.2 -30.8°
Enters shadow 00:41:44 12° 287° (WNW) 2,400 10.1 -30.8°
Maximum altitude 00:44:30 16° 256° (WSW) 2,124 - -30.7°
Drops below altitude 10° 00:47:54 10° 220° (SW) 2,532 - -30.6°
Sets 00:51:22 0° 200° (SSW) 3,479 - -30.4°
